Theta_e
286 286 286 286 285 285 285 284 284 284 284 284 284 284 284 284 284 285 285 285 285 286 286 286 286 286 286 286 286 286 286 286 286 286 286 287 287 287 287 287 288 288 288 288 288 288 288 288 288 288 289 289 289 290 290 290 290 290 291 291 291 291 291 292 292 292 292 292 293 293 293 293 293 293 293 293 293 293 293 293 293 293 293 293 293 293
286 286 285 285 285 284 284 284 284 284 284 284 284 284 284 284 285 285 285 285 286 286 286 286 286 286 285 285 285 285 285 285 286 286 286 286 287 287 287 287 287 287 287 287 287 287 288 288 288 288 289 289 289 289 290 290 290 290 290 291 291 291 291 291 291 291 292 292 292 292 292 292 292 292 292 292 292 292 292 292 293 293 293 293 293 293
285 285 285 284 284 284 284 284 284 284 284 284 284 284 284 285 285 285 286 286 286 286 286 286 285 285 284 284 284 284 285 285 285 286 286 286 286 286 286 287 287 287 287 287 287 287 288 288 288 288 289 289 289 289 289 290 290 290 290 290 290 290 291 291 291 291 291 291 291 291 291 291 291 291 291 291 291 292 292 292 292 292 293 293 293 293
285 284 284 284 284 284 284 284 284 284 284 284 284 284 285 285 285 286 286 286 286 286 285 285 284 284 284 284 284 284 284 285 285 285 286 286 286 286 286 286 286 286 286 287 287 287 287 288 288 288 288 288 289 289 289 289 289 289 290 290 290 290 290 290 290 290 290 290 290 290 290 290 290 291 291 291 291 291 291 292 292 292 292 292 292 293
284 284 284 284 284 284 284 284 284 284 284 284 284 285 285 286 286 286 287 286 285 285 284 284 284 284 284 284 284 284 284 284 285 285 285 285 285 285 285 286 286 286 286 287 287 287 287 288 288 288 288 288 288 288 288 289 289 289 289 289 289 289 289 289 289 289 289 289 290 290 290 290 290 290 290 290 291 291 291 291 291 291 291 292 292 292
284 284 284 284 284 284 284 284 284 284 284 284 285 285 286 286 286 286 286 285 284 284 284 284 284 284 284 284 283 284 284 284 284 284 284 285 285 285 285 285 286 286 286 286 287 287 287 287 287 287 287 288 288 288 288 288 288 288 288 288 288 289 289 289 289 289 289 289 289 289 289 289 289 289 290 290 290 290 290 290 291 291 291 291 291 291
284 284 284 284 284 284 284 284 284 284 284 285 285 286 286 286 286 285 285 284 284 284 284 283 283 283 283 283 283 283 283 283 284 284 284 284 284 285 285 285 285 286 286 286 286 287 287 287 287 287 287 287 287 287 288 288 288 288 288 288 288 288 288 288 288 288 288 288 288 288 288 288 289 289 289 289 289 289 290 290 290 290 290 291 291 291
284 284 284 284 284 284 284 284 285 285 285 285 286 286 286 286 285 284 284 284 284 284 283 283 283 283 283 283 283 283 283 283 283 283 284 284 284 284 285 285 285 286 286 286 286 286 286 286 286 286 287 287 287 287 287 287 287 287 287 287 287 287 287 287 287 287 288 288 288 288 288 288 288 289 289 289 289 289 290 290 290 290 290 291 291 291
284 284 284 284 284 284 285 285 285 285 285 286 286 286 285 285 284 284 284 284 284 284 283 283 283 283 283 283 283 283 283 283 283 284 284 284 284 284 285 285 285 285 285 285 285 285 285 286 286 286 286 286 286 286 287 287 287 287 287 287 287 287 287 287 287 287 287 287 288 288 288 288 289 289 289 289 290 290 290 290 290 290 290 291 291 291
284 284 284 285 285 285 285 285 285 286 286 286 286 285 284 284 284 284 284 284 284 283 283 283 283 283 283 283 283 283 283 284 284 284 284 284 285 285 285 285 285 285 285 285 285 285 285 285 285 285 286 286 286 286 286 286 286 286 286 286 286 286 286 286 287 287 287 287 288 288 288 289 289 289 290 290 290 290 290 290 290 290 291 291 291 291
285 285 285 285 285 285 285 286 286 286 286 286 285 284 284 284 284 284 284 284 283 283 283 283 283 283 283 283 283 284 284 284 284 284 284 284 284 284 284 284 284 284 284 284 284 284 284 284 285 285 285 285 285 285 285 285 285 285 285 286 286 286 286 286 287 287 287 288 288 288 289 289 289 289 290 290 290 290 290 290 290 290 291 291 291 291
286 286 286 286 286 286 286 286 286 286 285 285 284 284 284 284 284 284 284 283 283 283 283 283 283 283 283 283 283 284 284 284 284 284 284 284 284 284 284 283 283 283 283 283 283 283 283 284 284 284 284 285 285 285 285 285 285 285 285 285 285 286 286 286 287 287 288 288 288 289 289 289 289 289 289 290 290 290 290 290 290 290 290 290 290 291
286 286 286 286 286 286 286 285 285 285 284 284 284 284 284 284 284 284 283 283 283 283 283 283 283 283 283 284 284 284 284 284 284 284 284 284 284 283 283 283 283 283 283 283 283 283 283 283 283 284 284 284 284 284 284 284 284 284 285 285 285 286 286 287 287 288 288 288 288 289 289 289 289 289 289 289 289 289 290 290 290 290 290 290 290 290
286 286 285 285 285 285 285 285 285 284 284 284 284 284 284 283 283 283 283 283 283 283 283 283 283 283 284 284 284 284 284 284 284 284 284 284 283 283 283 283 283 283 283 283 283 283 283 283 283 283 283 283 283 283 283 283 284 284 285 285 286 286 286 287 287 287 288 288 288 288 289 289 289 289 289 289 289 289 289 290 290 290 290 290 290 290
285 285 285 285 285 285 285 285 285 284 284 284 284 283 283 283 283 283 283 283 283 283 283 283 283 284 284 284 284 284 284 284 284 284 283 283 283 283 283 282 282 282 282 282 283 283 283 283 283 283 283 283 283 283 283 284 284 285 285 285 286 286 286 287 287 287 288 288 288 288 288 288 289 289 289 289 289 289 289 290 290 290 290 290 290 290
285 285 285 285 285 285 285 285 284 284 283 283 283 283 283 283 283 283 283 283 283 283 283 284 284 284 284 284 285 285 285 284 284 283 283 283 283 283 282 282 282 282 282 282 282 283 283 283 283 283 283 283 283 283 284 284 284 285 285 285 286 286 286 287 287 287 287 288 288 288 288 288 288 288 289 289 289 289 289 290 290 290 290 290 290 290
285 286 286 286 285 285 284 284 283 283 283 283 282 282 282 282 283 283 283 283 283 283 283 284 284 284 285 285 285 285 284 284 283 283 283 283 282 282 282 282 282 282 282 282 282 282 282 282 283 283 283 283 283 283 284 284 284 285 285 285 286 286 286 287 287 287 287 287 288 288 288 288 288 288 289 289 289 289 289 289 290 290 290 290 290 290
286 286 285 285 284 284 283 283 283 282 282 282 282 282 282 283 283 283 283 283 283 283 284 284 284 285 285 285 285 284 284 283 283 283 282 282 282 282 282 282 282 282 282 282 282 282 282 282 282 282 282 283 283 283 284 284 284 285 285 285 286 286 286 286 287 287 287 287 287 288 288 288 288 288 289 289 289 289 289 289 290 290 290 290 291 291
285 285 284 284 283 283 282 282 282 282 282 282 282 283 283 283 283 283 283 283 284 284 284 284 285 285 285 285 284 284 283 283 282 282 282 282 282 282 282 282 282 282 282 282 282 282 282 282 282 282 282 283 283 283 284 284 284 285 285 285 286 286 286 286 286 287 287 287 287 287 288 288 288 288 289 289 289 289 289 289 290 290 290 290 290 291
284 283 283 283 282 282 282 282 282 282 282 283 283 283 283 283 283 284 284 284 284 284 284 285 285 285 284 284 283 283 283 282 282 282 282 282 282 282 282 282 282 282 282 282 282 282 282 282 282 282 282 282 283 283 283 284 284 285 285 285 285 286 286 286 286 286 287 287 287 287 288 288 288 288 289 289 289 289 289 289 289 289 290 290 290 290
283 283 282 282 282 282 282 282 282 283 283 283 283 283 283 284 284 284 284 284 284 285 285 284 284 284 283 283 283 282 282 282 282 282 282 282 282 282 282 282 282 282 282 282 282 282 282 282 282 282 282 282 283 283 284 284 284 284 285 285 285 285 286 286 286 286 286 287 287 287 287 288 288 288 288 288 288 288 289 289 289 289 289 289 290 290
282 282 282 282 282 282 283 283 283 283 283 283 283 283 284 284 284 284 284 284 284 284 284 283 283 283 282 282 282 282 282 281 281 281 281 282 282 282 282 282 282 282 282 282 282 282 282 282 282 282 282 282 283 283 284 284 284 284 285 285 285 285 285 286 286 286 286 286 287 287 287 288 288 288 288 288 288 288 288 288 289 289 289 289 289 290
282 282 282 282 283 283 283 283 283 283 283 284 284 284 284 284 285 285 284 284 283 283 283 282 282 282 282 282 281 281 281 281 281 281 281 281 282 282 282 282 282 282 282 282 282 282 282 282 282 282 282 282 283 283 283 284 284 284 284 285 285 285 285 285 286 286 286 286 287 287 287 287 287 287 288 288 288 288 288 288 288 289 289 289 289 290
282 282 283 283 283 283 283 283 284 284 284 285 285 285 285 284 284 283 283 283 282 282 282 282 282 281 281 281 281 281 281 281 281 281 281 281 281 281 281 281 282 282 282 282 282 282 282 282 282 282 282 282 283 283 283 283 284 284 284 284 284 285 285 285 285 286 286 286 286 286 287 287 287 287 287 287 288 288 288 288 288 288 289 289 289 289
283 283 283 283 283 284 284 284 285 285 286 286 285 284 283 283 283 282 282 282 282 282 282 282 281 281 281 281 281 281 281 281 281 281 281 281 281 281 281 281 281 282 282 282 282 282 282 282 282 282 282 282 282 283 283 283 283 284 284 284 284 285 285 285 285 285 286 286 286 286 286 286 287 287 287 287 287 288 288 288 288 288 288 289 289 289
283 283 283 284 284 284 285 285 285 285 285 284 283 283 282 282 282 282 282 282 282 282 281 281 281 281 281 281 281 281 281 281 281 281 281 281 281 281 281 281 281 281 282 282 282 282 282 282 282 282 282 282 282 282 282 283 283 283 283 284 284 284 285 285 285 285 285 285 286 286 286 286 286 287 287 287 287 287 288 288 288 288 288 288 288 289
283 283 284 284 284 284 285 284 284 283 283 282 282 282 282 282 282 282 282 282 281 281 281 281 281 281 281 281 281 281 281 281 281 281 281 281 281 281 281 281 281 282 282 282 282 282 282 282 282 282 282 282 282 282 282 282 283 283 283 284 284 284 284 284 285 285 285 285 285 286 286 286 286 286 287 287 287 287 287 288 288 288 288 288 288 288
283 283 283 284 284 283 283 282 282 281 281 281 281 281 282 282 282 282 281 281 281 281 281 281 281 281 281 281 281 281 281 281 281 281 281 281 281 281 281 281 282 282 282 282 282 282 282 282 282 282 282 282 282 282 282 282 283 283 283 283 284 284 284 284 284 284 285 285 285 285 286 286 286 286 287 287 287 287 287 287 287 288 288 288 288 288
283 283 283 283 282 282 281 280 280 280 280 280 281 281 281 281 281 281 281 281 281 281 281 281 281 281 281 281 281 281 281 281 281 281 281 281 281 281 281 281 281 282 282 282 282 282 282 282 282 282 282 282 282 282 282 282 282 283 283 283 283 283 283 284 284 284 284 285 285 285 285 286 286 286 286 287 287 287 287 287 287 287 287 287 287 287
282 282 281 281 280 280 280 280 279 279 280 280 280 280 280 280 280 280 280 280 280 280 281 281 281 281 281 281 281 281 281 281 281 281 281 281 281 281 281 281 281 281 281 281 282 282 282 282 282 282 282 282 282 282 282 282 282 282 282 283 283 283 283 283 284 284 284 285 285 285 285 286 286 286 286 286 286 287 287 287 287 287 287 287 287 287
281 280 280 280 280 279 279 279 279 279 279 280 280 280 280 280 280 280 280 280 280 280 281 281 281 281 281 281 281 281 281 281 281 281 281 281 281 281 281 281 281 281 281 281 282 282 282 282 282 282 282 282 282 282 282 282 282 283 283 283 283 283 283 283 284 284 284 284 285 285 285 285 285 286 286 286 286 286 286 287 287 287 287 287 287 287
280 280 280 279 279 279 279 279 279 279 279 279 279 279 279 280 280 280 280 280 280 280 280 280 280 280 280 280 280 281 281 281 281 281 281 281 281 281 281 281 281 281 281 281 282 282 282 282 282 282 282 282 282 282 282 283 283 283 283 283 283 283 283 283 283 284 284 284 284 284 285 285 285 285 285 286 286 286 286 286 286 287 287 287 286 286
279 279 279 279 279 279 279 279 279 279 279 279 279 279 279 280 280 280 280 280 280 280 280 280 280 280 280 280 280 280 280 280 280 280 281 281 281 281 281 281 281 281 281 281 281 282 282 282 282 282 282 282 282 282 283 283 283 283 283 283 283 283 283 283 283 283 283 284 284 284 284 284 285 285 285 285 285 286 286 286 286 286 286 286 286 286
279 279 279 279 279 279 279 279 279 279 280 280 280 280 280 279 279 279 279 279 279 280 280 280 280 280 280 280 280 280 280 280 280 280 281 281 281 281 281 281 281 281 281 281 282 282 282 282 282 282 282 282 282 282 282 282 282 283 283 283 283 283 283 283 283 283 283 284 284 284 284 284 284 284 285 285 285 285 285 286 286 286 286 286 287 287
279 279 279 279 279 279 279 279 279 280 280 280 280 280 280 279 279 279 279 279 279 279 279 279 279 280 280 280 280 280 280 280 280 280 280 281 281 281 281 281 281 281 281 281 282 282 282 282 282 282 282 282 282 282 282 282 282 283 283 283 283 283 283 283 283 283 283 284 284 284 284 284 284 284 284 284 285 285 285 286 286 286 286 286 287 287
279 279 279 279 279 279 279 279 280 280 280 280 280 280 279 279 279 279 279 279 279 279 279 279 279 279 279 280 280 280 280 280 280 280 280 280 281 281 281 281 281 281 281 281 282 282 282 282 282 282 282 282 282 282 282 282 283 283 283 283 283 283 283 283 283 283 284 284 284 284 284 284 284 284 284 285 285 285 285 286 286 286 286 286 286 286
279 279 279 279 279 279 280 280 280 280 280 280 280 279 279 279 279 279 279 279 279 279 279 279 279 279 279 280 280 280 280 280 280 280 280 280 280 280 281 281 281 281 281 281 282 282 282 282 282 282 282 282 282 282 282 282 283 283 283 283 283 283 283 283 284 284 284 284 284 284 284 285 285 285 285 285 285 285 285 285 285 285 285 285 285 286
279 279 279 279 280 280 280 280 280 280 280 279 279 279 279 279 279 279 279 279 279 279 279 279 279 279 279 280 280 280 280 280 280 280 280 280 280 280 281 281 281 281 281 281 281 281 281 281 282 282 282 282 282 282 282 283 283 283 283 283 283 283 283 284 284 284 284 284 285 285 285 285 285 285 285 285 285 285 284 284 284 284 284 285 285 285
279 279 279 280 280 280 280 280 280 279 279 279 279 279 279 279 279 279 279 279 279 279 279 279 279 279 279 280 280 280 280 280 280 280 280 280 280 280 281 281 281 281 281 281 281 281 281 281 281 282 282 282 282 282 282 282 283 283 283 283 283 284 284 284 284 284 284 284 285 285 285 285 285 285 285 285 284 284 284 284 284 284 285 285 285 285
280 280 280 280 280 280 280 279 279 279 279 279 279 279 279 279 279 279 279 279 279 279 279 279 279 279 280 280 280 280 280 280 280 280 280 280 280 280 280 280 280 281 281 281 281 281 281 281 281 282 282 282 282 282 282 283 283 283 283 283 284 284 284 284 284 284 284 284 285 285 285 285 285 285 285 285 285 285 285 285 285 285 285 285 285 285
280 280 279 279 279 279 279 279 279 279 279 279 279 279 279 279 279 279 279 279 279 279 279 279 279 280 280 280 280 280 280 280 280 280 280 280 280 281 280 280 281 281 281 281 281 281 281 281 281 282 282 282 282 282 283 283 283 283 283 284 284 284 284 284 284 284 284 285 285 285 285 285 285 285 285 285 285 285 285 285 285 285 285 285 285 285
279 279 279 279 279 279 279 279 279 279 279 279 279 279 279 279 279 279 279 279 279 279 279 280 280 280 280 280 280 280 280 280 280 280 280 280 281 281 281 281 281 281 281 281 281 281 281 281 281 282 282 282 282 282 283 283 283 283 283 284 284 284 284 284 284 284 284 285 285 285 285 285 285 285 285 285 285 285 285 285 285 285 285 285 285 285
279 279 279 279 279 279 279 279 279 279 279 279 279 279 279 279 279 279 279 279 279 279 280 280 280 280 280 280 280 280 280 280 280 280 281 281 281 281 281 281 281 281 281 281 281 281 281 282 282 282 282 282 283 283 283 283 283 283 283 284 284 284 284 284 284 284 285 285 285 285 285 285 285 285 285 285 285 285 285 285 285 285 285 285 285 285
279 279 279 279 279 279 279 279 279 279 279 279 278 279 279 279 279 279 279 279 279 279 279 279 280 280 280 280 280 280 280 280 280 281 281 281 281 281 281 281 281 281 281 281 282 282 282 282 282 282 283 283 283 283 283 283 283 284 284 284 284 284 284 284 284 284 285 285 285 285 285 285 285 285 285 285 285 285 285 285 285 285 285 285 285 285
279 279 279 279 279 279 279 279 278 278 278 278 278 278 279 279 279 279 279 279 279 279 279 279 279 280 280 280 280 280 280 280 280 280 281 281 281 281 281 281 281 281 282 282 282 282 282 282 283 283 283 283 283 283 283 284 284 284 284 284 284 284 284 284 284 285 285 285 285 285 285 285 285 285 285 285 285 285 285 285 285 285 285 285 285 285
279 279 279 279 279 278 278 278 278 278 278 278 278 278 279 279 279 279 279 279 279 279 279 279 279 280 280 280 280 280 280 280 280 281 281 281 281 281 281 281 282 282 282 282 282 282 282 283 283 283 283 283 283 283 283 284 284 284 284 284 284 284 284 284 285 285 285 285 285 285 285 285 285 285 285 286 286 286 285 285 285 285 285 285 285 285
279 279 279 278 278 278 278 278 278 278 278 278 278 278 278 278 279 279 279 279 279 279 279 279 279 279 280 280 280 280 280 280 280 281 281 281 281 281 282 282 282 282 282 282 283 283 283 283 283 283 283 283 283 283 283 283 284 284 284 284 284 284 284 285 285 285 285 285 286 286 286 286 286 286 286 286 286 285 285 285 285 285 285 285 285 284
278 278 278 278 278 278 278 278 278 278 278 278 278 278 278 278 279 279 279 279 279 279 279 279 279 279 280 280 280 280 280 280 280 281 281 281 281 282 282 282 282 282 282 283 283 283 283 283 283 283 283 283 283 283 283 284 284 284 284 284 284 284 285 285 285 286 286 286 286 286 286 286 286 285 285 285 285 285 285 285 285 285 285 284 284 284
278 278 278 278 278 278 278 278 278 278 278 278 278 278 278 279 279 279 279 279 279 279 279 279 279 279 279 280 280 280 280 280 281 281 281 281 282 282 282 282 282 282 282 283 283 283 283 283 283 283 283 283 283 283 284 284 284 284 284 285 285 285 285 286 286 286 286 286 286 286 286 286 285 285 285 285 285 285 285 285 285 285 284 284 284 284
278 278 278 278 278 278 278 278 278 278 278 278 278 278 278 278 278 278 278 279 279 279 279 279 279 279 279 280 280 280 280 281 281 281 281 281 282 282 282 282 282 282 283 283 283 283 283 283 284 284 284 284 284 284 284 285 285 285 285 285 286 286 286 286 286 286 286 286 286 286 286 285 285 285 285 285 285 285 285 285 285 285 285 285 285 285
277 278 278 278 278 278 278 278 278 278 278 278 278 278 278 278 278 278 278 279 279 279 279 279 279 279 279 280 280 280 281 281 281 281 281 282 282 282 282 282 282 282 282 283 283 283 283 284 284 284 284 285 285 285 285 285 286 286 286 286 286 286 286 286 286 286 286 286 286 286 285 285 285 285 285 285 285 285 285 285 285 285 285 285 285 285
Wind_Speed
20 21 22 22 23 23 24 24 24 26 26 27 26 26 26 26 26 26 27 26 25 25 25 25 26 27 28 28 28 28 28 28 28 28 28 28 28 29 29 30 30 31 31 32 32 33 33 32 32 32 32 31 31 31 31 31 31 31 31 31 31 30 31 30 30 30 30 30 30 30 30 30 30 30 29 29 29 29 29 29 30 30 30 31 32 32
20 21 21 21 22 23 24 24 24 24 26 27 27 27 27 27 27 27 26 25 24 24 24 26 26 27 28 29 28 28 27 27 27 27 27 28 28 29 30 31 31 32 32 32 33 32 32 32 32 31 31 31 31 31 31 31 31 31 31 31 31 30 30 30 30 30 30 30 30 29 29 29 29 29 29 29 28 28 28 29 29 29 29 30 30 30
21 21 21 21 22 22 23 24 24 24 25 27 27 27 27 28 27 26 24 23 23 24 25 26 27 27 28 28 28 27 26 26 26 27 27 28 29 30 31 32 32 32 32 32 32 32 32 31 31 31 31 31 31 31 31 31 31 31 30 30 30 30 30 30 30 30 30 29 29 29 28 28 28 28 28 28 28 28 28 29 29 29 29 29 29 29
20 21 22 22 22 22 22 23 24 25 25 26 27 27 27 26 25 23 22 23 24 25 26 26 27 27 27 27 27 26 25 25 26 27 28 29 30 31 32 32 32 32 32 31 31 31 31 31 31 31 31 31 31 31 31 31 31 30 30 30 30 30 30 30 30 30 29 29 29 28 28 28 28 28 28 28 28 28 28 28 29 29 29 29 29 29
20 21 22 22 22 22 22 23 24 25 26 26 26 26 25 23 22 21 22 23 25 26 26 26 26 26 26 26 25 25 25 25 27 28 29 30 31 31 31 31 31 31 31 31 31 31 31 31 31 31 31 31 31 31 31 31 31 31 31 30 30 30 30 30 30 29 29 29 28 28 28 28 27 27 27 27 27 28 28 28 28 28 29 29 29 29
21 21 21 21 21 22 23 24 24 25 25 25 24 23 21 20 20 21 23 25 26 26 26 26 25 25 24 25 25 25 25 26 28 28 29 30 30 30 30 30 30 30 30 30 31 31 31 31 31 31 31 31 31 31 31 31 31 31 31 31 30 30 30 30 29 29 29 28 28 28 27 27 27 27 27 27 27 27 27 28 28 28 28 28 29 29
21 21 21 21 22 23 23 24 24 25 24 24 22 20 19 20 21 23 25 26 26 26 25 25 24 24 24 25 25 26 26 27 28 28 28 28 29 29 29 29 29 30 30 30 30 31 31 31 31 31 31 31 31 31 31 31 31 31 31 31 30 30 30 29 29 29 29 28 28 28 27 27 27 27 27 27 27 27 27 27 28 28 28 28 29 29
22 22 22 22 23 24 24 23 23 23 23 21 19 19 20 22 23 24 25 25 25 24 23 23 23 24 24 25 26 26 26 27 27 27 27 28 28 28 28 29 29 29 29 30 30 31 31 31 31 31 31 31 31 31 31 31 31 31 30 30 30 30 29 29 29 29 29 28 28 28 28 28 27 27 27 27 27 28 28 28 28 28 28 28 29 29
22 23 23 23 23 23 24 23 22 20 20 19 19 19 22 24 25 25 24 24 23 22 22 23 24 25 25 25 25 26 26 25 26 26 27 27 28 28 28 28 28 28 29 29 30 31 31 31 31 31 31 31 31 31 31 30 30 30 30 30 29 29 29 29 29 29 29 28 28 28 28 28 28 28 28 29 29 29 29 29 29 29 29 29 29 29
22 23 23 23 21 21 21 21 21 19 18 18 19 20 22 24 25 25 24 23 22 22 23 23 24 25 25 25 25 25 25 26 26 26 26 27 27 27 27 27 27 28 29 29 30 31 31 31 31 31 30 30 30 30 30 30 30 30 29 29 29 29 29 29 29 29 29 29 29 29 29 30 30 30 30 30 30 30 30 30 30 30 30 30 30 30
21 21 20 20 19 18 18 18 19 19 18 20 21 22 21 22 22 23 23 23 24 24 24 23 24 24 25 25 25 25 26 26 26 26 25 25 25 25 26 26 27 27 28 29 30 30 30 30 30 30 30 30 29 29 29 29 29 29 29 29 29 29 29 29 29 29 30 30 30 30 30 31 31 31 30 30 30 30 30 30 30 30 30 30 30 30
18 17 16 15 16 16 17 18 18 19 20 21 22 21 21 20 20 21 22 23 24 25 25 24 24 24 25 25 26 26 26 26 25 25 24 24 24 25 25 26 27 27 28 28 28 29 29 29 29 29 29 29 28 28 28 28 29 29 29 29 29 29 29 30 30 30 31 31 31 31 31 31 31 31 31 31 30 30 30 30 30 30 30 30 30 30
15 14 15 16 18 19 19 19 20 20 20 20 19 19 20 20 20 21 22 23 24 25 25 25 25 25 25 25 26 26 25 25 24 23 22 23 24 25 26 27 27 27 27 28 28 28 28 28 28 28 28 28 28 28 28 28 29 29 29 29 29 30 30 31 31 31 32 32 32 31 31 31 31 31 31 31 31 30 30 30 30 30 30 30 30 31
15 17 18 19 19 19 19 19 19 19 19 19 19 19 21 21 22 22 23 23 24 25 25 26 26 26 25 25 24 24 23 23 22 21 22 23 24 26 26 27 27 27 27 27 27 28 27 27 27 28 28 28 28 28 29 29 29 29 29 30 30 31 31 32 32 32 32 32 32 32 31 31 31 31 31 31 31 31 31 30 30 30 30 30 30 30
18 19 19 18 18 18 17 17 18 18 19 19 20 21 22 22 22 22 22 23 24 25 25 26 26 26 25 23 22 21 21 20 20 21 23 25 26 26 26 26 27 26 26 26 27 27 27 27 27 28 29 29 29 29 29 29 29 30 30 31 31 32 32 32 32 32 32 32 32 32 32 31 31 31 31 31 31 30 30 30 30 30 30 30 30 30
19 18 17 16 17 17 17 17 18 19 20 21 21 21 21 22 22 22 22 23 25 25 24 24 23 23 23 22 20 19 18 19 21 23 26 27 27 26 25 25 26 26 26 25 26 27 27 27 27 28 28 29 29 29 29 30 30 31 31 32 32 32 32 32 32 32 33 33 33 33 32 32 31 31 31 31 30 30 30 30 30 30 30 30 30 30
17 16 15 14 15 17 19 20 20 20 21 21 21 21 21 21 22 23 24 24 24 23 21 20 15 12 14 20 20 17 18 21 23 25 27 28 28 27 25 24 24 25 26 25 26 26 26 27 27 28 28 28 29 29 30 31 31 32 32 32 32 32 32 32 33 33 33 33 33 33 33 32 32 31 31 31 30 30 30 30 30 30 30 30 30 30
15 14 14 16 18 19 21 21 21 21 21 21 21 21 22 23 24 25 25 24 22 20 19 18 15 11 9 14 18 20 21 23 25 27 27 28 27 26 24 23 24 25 25 25 25 26 26 27 27 28 28 29 29 30 31 31 32 32 32 32 32 32 33 33 33 33 34 34 33 33 33 32 32 32 31 31 31 30 30 30 30 30 30 30 30 30
16 17 18 19 20 21 21 21 21 20 20 20 21 23 24 25 25 25 24 23 21 19 19 17 16 16 15 17 21 24 25 25 26 27 26 26 26 26 23 23 23 24 25 25 25 26 26 27 28 29 29 29 30 31 31 31 31 32 32 32 33 33 33 34 34 34 34 34 33 33 32 32 32 31 31 31 31 30 30 29 29 29 29 29 29 29
19 20 20 21 21 21 21 21 21 21 21 23 24 24 25 26 26 25 23 21 19 19 18 17 16 17 19 22 26 28 28 26 25 25 25 26 26 25 23 22 23 24 25 25 26 26 27 28 29 29 30 29 29 30 30 31 31 32 32 33 33 34 34 34 34 34 33 33 33 33 32 32 32 31 31 31 31 30 30 29 29 29 29 29 29 29
22 22 22 22 22 21 21 22 22 23 24 25 26 26 26 26 24 21 19 18 17 16 15 15 18 21 24 26 28 29 28 26 24 23 24 24 24 24 23 22 23 24 25 26 26 26 27 28 29 29 29 29 29 29 30 31 32 33 33 33 34 34 34 34 33 33 33 33 33 33 32 32 32 32 31 31 31 30 30 29 29 29 29 29 29 29
23 23 23 23 22 22 22 23 24 25 27 28 27 25 24 22 19 18 17 16 16 17 19 21 24 26 27 27 28 29 28 25 23 22 22 21 22 24 23 22 23 24 25 26 27 27 27 27 28 28 28 28 29 30 31 32 32 33 33 33 34 34 34 33 33 33 33 33 32 32 32 32 32 32 31 31 31 30 30 30 29 29 29 29 29 29
23 23 23 22 22 22 23 24 26 28 29 28 26 24 22 19 17 17 17 18 20 22 24 26 27 27 27 27 27 27 26 24 23 22 21 16 19 24 24 23 23 24 25 26 27 27 27 27 27 27 28 28 29 30 31 32 32 33 33 33 33 33 33 33 33 33 32 32 32 32 32 32 32 32 31 31 30 30 30 30 29 29 29 29 29 29
22 22 23 22 22 24 25 26 27 27 26 25 23 21 20 20 20 21 21 23 24 23 24 25 26 26 25 25 24 24 24 23 22 20 19 17 20 24 24 24 23 24 26 26 26 26 26 27 27 27 28 29 29 30 31 31 32 32 32 33 33 33 33 33 33 33 33 33 33 33 32 32 32 31 31 31 30 30 30 30 29 29 29 29 29 29
22 22 23 23 24 25 25 26 26 26 25 24 23 23 23 24 24 24 24 24 22 21 22 22 21 21 22 22 22 22 23 22 21 20 19 18 21 24 25 23 23 24 26 27 26 26 26 27 28 28 28 29 29 29 30 31 31 31 32 32 32 32 33 33 33 33 33 33 33 32 32 32 31 31 31 30 30 30 30 30 29 29 29 29 29 30
22 23 23 24 25 26 26 27 26 26 26 26 26 26 25 25 24 24 23 22 20 19 19 18 17 18 21 21 21 21 22 22 21 20 19 19 20 23 25 24 23 24 26 27 27 26 26 27 28 28 28 29 29 29 29 29 30 30 31 31 32 33 33 33 34 33 33 33 32 32 31 31 31 30 30 30 30 30 30 30 29 29 29 29 30 30
23 24 24 25 25 25 25 24 25 25 26 26 26 25 24 23 21 20 19 19 18 17 17 15 14 15 18 18 19 21 23 23 22 21 20 20 20 21 23 23 23 23 25 27 27 27 26 27 28 28 28 28 28 28 28 28 28 29 30 31 32 33 34 34 33 33 33 32 32 31 31 31 30 30 30 30 30 30 29 29 29 29 29 29 29 29
23 23 22 22 21 21 22 23 24 25 25 25 24 22 21 19 18 17 17 18 18 17 17 15 12 11 13 16 19 22 24 24 23 22 21 19 18 18 22 23 23 23 25 26 28 28 26 26 26 26 26 27 27 27 27 27 28 29 30 32 33 33 33 33 33 32 32 31 31 31 31 30 30 30 30 30 30 29 29 29 29 29 29 29 28 27
20 19 18 18 19 21 23 24 25 24 23 22 20 19 18 17 17 17 18 18 18 17 17 17 16 14 15 18 21 23 24 23 22 21 19 17 17 18 22 23 23 24 24 25 27 28 26 24 23 23 24 25 25 26 27 28 29 30 31 32 32 32 32 32 31 31 31 31 31 31 31 30 30 30 30 29 29 29 29 29 29 29 28 27 26 27
17 17 19 21 22 23 24 24 24 22 20 19 18 18 17 17 17 18 19 19 18 17 17 17 18 18 18 18 17 17 19 21 20 18 17 16 16 19 22 23 23 23 23 21 17 17 20 23 23 22 22 24 25 26 28 29 29 30 30 31 31 31 31 30 30 30 30 31 31 30 30 30 30 30 29 29 29 29 29 29 28 28 26 26 26 27
19 21 23 25 25 24 23 22 21 19 19 18 18 18 17 17 17 18 18 18 18 18 18 18 18 19 18 14 9 6 9 19 21 19 18 17 18 20 22 22 22 23 22 17 8 4 11 17 22 24 23 24 25 27 28 28 29 29 30 30 31 31 30 30 30 30 30 30 30 30 29 29 29 29 29 29 29 29 29 28 28 27 26 26 26 26
23 24 24 24 23 22 21 19 19 19 19 19 19 18 18 17 17 17 17 17 17 18 18 19 19 20 19 16 11 9 13 22 25 23 21 18 19 21 22 21 22 23 23 21 16 10 8 8 17 26 26 25 25 26 27 28 28 29 29 30 30 31 31 30 29 29 29 29 29 29 29 29 29 29 29 29 29 29 28 28 27 26 25 25 25 24
23 22 22 21 21 20 19 19 19 20 20 20 19 19 18 18 17 17 17 17 18 18 19 19 19 20 20 20 19 20 23 26 26 24 22 19 19 21 22 22 23 24 24 24 23 20 15 14 19 26 27 26 25 26 26 27 28 28 29 29 30 31 31 30 29 29 29 29 29 29 29 29 29 29 29 29 28 28 28 27 27 26 25 24 24 24
20 20 20 20 20 20 20 20 20 20 20 19 19 19 19 18 18 18 18 18 18 19 19 19 20 20 20 20 21 23 26 27 26 24 21 20 20 21 23 23 23 23 24 23 23 23 22 23 23 24 24 26 27 26 26 27 27 28 29 29 30 30 31 30 29 29 29 29 29 29 29 30 29 29 28 28 27 27 26 26 26 26 25 25 25 25
19 19 19 19 20 20 20 21 20 20 20 19 19 19 19 19 20 20 20 20 20 20 20 21 21 21 22 21 21 23 26 28 27 24 22 21 22 22 23 23 23 23 22 22 22 21 20 23 24 23 22 24 26 27 26 26 27 28 29 29 29 30 30 30 30 29 30 30 30 29 29 29 29 28 28 28 27 26 26 27 27 28 28 28 27 26
18 19 19 19 19 20 20 20 20 20 20 20 20 20 20 21 21 21 21 22 21 21 22 22 23 23 24 24 24 25 27 30 29 27 25 24 24 23 23 25 25 24 22 22 22 21 19 21 24 25 23 21 21 23 26 27 27 27 28 29 30 30 30 30 30 30 30 29 29 29 29 28 28 28 28 28 27 27 28 29 29 29 29 29 28 27
18 18 18 18 19 19 20 20 20 20 20 21 21 21 22 22 23 23 23 24 24 24 24 24 25 25 25 26 27 28 30 31 31 30 29 28 28 27 25 26 26 26 23 22 22 23 21 20 20 22 22 19 18 20 25 27 28 28 29 29 29 30 30 30 30 29 28 28 28 28 28 27 27 27 28 28 28 28 29 29 30 30 29 28 28 28
17 18 18 18 18 19 19 20 20 20 21 21 22 23 23 24 24 25 25 26 26 26 26 25 26 26 27 27 29 31 32 33 34 34 34 32 31 29 26 26 26 26 24 24 23 23 21 16 13 12 12 17 21 24 26 27 27 28 29 30 30 30 29 29 29 28 27 27 28 28 28 28 28 28 28 28 28 28 28 29 29 29 28 28 27 27
17 17 18 18 18 18 19 20 20 21 22 23 23 24 24 25 25 26 26 26 26 25 25 25 26 27 28 30 31 31 31 32 32 33 33 33 32 29 28 26 26 27 26 26 25 23 22 18 14 11 9 14 21 25 27 27 27 28 29 30 30 30 29 28 27 27 27 27 28 28 28 28 28 28 28 28 27 27 27 28 29 28 27 27 27 28
17 18 18 18 18 19 19 20 21 22 23 24 25 25 24 24 24 25 25 25 25 24 25 25 26 27 27 28 29 29 30 31 31 32 32 32 32 30 29 27 27 27 27 26 25 25 24 23 23 23 22 20 21 24 26 27 28 29 29 27 26 27 29 29 28 28 28 28 27 27 27 28 27 27 26 26 26 26 27 28 29 29 28 27 27 27
17 18 19 19 20 20 20 21 22 23 23 23 23 23 23 22 23 23 24 25 25 25 24 24 24 25 26 27 28 29 29 29 30 30 30 30 31 30 30 29 28 27 27 26 26 25 25 25 25 26 25 25 25 26 27 28 30 31 30 27 26 28 31 30 29 28 27 26 26 26 26 26 26 26 26 26 27 27 29 29 29 29 29 27 26 25
18 18 19 20 20 21 22 22 23 23 23 22 22 22 21 21 21 22 23 24 24 25 24 24 24 25 26 28 28 28 28 28 28 29 29 29 29 29 30 30 30 28 27 27 26 26 25 25 25 26 26 26 25 24 25 28 30 30 29 28 28 30 30 30 29 27 25 25 25 26 25 26 26 26 27 27 28 29 30 29 29 29 28 27 26 26
18 19 20 21 21 22 22 22 22 22 22 21 21 22 22 21 21 22 22 23 23 24 23 23 23 23 25 26 28 28 28 27 27 27 27 27 28 28 29 29 30 29 27 26 25 26 26 26 26 26 26 27 26 24 24 27 30 31 30 30 28 25 21 25 28 28 26 26 26 26 26 26 26 27 27 27 27 28 29 29 29 29 28 27 28 28
20 20 21 21 21 22 22 21 21 21 22 22 22 22 22 22 21 21 21 22 23 23 23 23 23 23 23 24 26 27 28 27 27 26 26 26 26 26 27 28 28 28 28 26 25 25 26 27 27 27 28 27 26 26 26 28 29 30 31 30 29 25 22 25 28 29 28 28 27 27 26 26 27 28 28 28 28 27 27 27 28 28 28 28 28 28
20 21 21 20 20 20 20 21 21 22 22 22 22 22 23 22 22 21 21 22 23 24 24 23 22 21 22 23 25 26 27 27 27 26 26 26 26 25 26 27 27 28 28 27 26 25 24 25 26 28 28 27 26 26 26 27 28 29 30 31 29 28 29 29 29 28 27 28 28 28 28 28 27 27 27 27 27 27 26 26 25 26 27 27 28 28
19 19 20 20 20 20 21 21 21 21 22 22 22 23 22 22 22 22 22 22 22 23 23 22 20 19 20 22 24 25 25 26 27 27 27 27 27 27 27 27 26 26 27 27 27 27 26 26 27 28 28 27 27 28 28 28 28 28 29 30 29 28 28 29 29 28 27 27 27 27 27 27 25 24 24 25 27 27 27 27 26 26 28 27 27 28
19 19 19 20 20 20 21 21 21 21 21 22 23 23 23 22 22 22 22 22 22 22 22 22 20 20 20 22 23 23 23 24 26 27 28 28 28 28 27 27 26 26 26 27 27 28 28 29 30 29 27 25 25 26 29 30 29 28 28 29 28 28 27 28 28 28 27 26 26 26 26 25 24 23 24 26 27 28 28 28 28 28 28 28 27 28
19 19 19 20 20 21 21 21 21 21 21 22 23 24 24 23 22 22 22 22 22 21 21 21 21 21 22 22 23 23 23 24 25 26 27 28 28 28 28 27 27 26 26 27 28 29 30 31 31 31 29 26 24 24 28 30 30 29 28 28 27 26 25 27 28 28 27 26 26 27 27 25 24 23 25 26 26 28 29 29 29 28 27 27 27 27
19 19 20 20 20 20 20 21 21 21 21 22 23 24 24 24 23 22 21 22 22 21 21 21 21 21 21 22 23 24 25 25 25 25 26 27 27 27 27 28 28 28 28 28 28 28 29 30 30 29 28 27 26 26 27 29 30 29 28 27 26 25 25 26 27 28 27 27 27 27 27 26 25 25 25 24 25 27 30 30 29 28 27 26 26 27
19 19 19 19 19 20 20 21 21 21 21 22 23 23 24 24 23 22 22 22 21 21 20 20 21 21 21 22 24 24 24 24 24 25 26 26 26 26 26 27 27 27 27 27 27 27 26 26 26 26 25 25 25 26 27 28 28 28 27 26 25 25 25 25 27 27 27 27 27 26 26 26 26 25 24 23 24 26 28 29 29 28 26 25 25 25
19 19 19 19 19 20 20 21 21 21 21 22 22 23 23 23 23 23 22 22 21 21 21 21 21 21 22 22 23 24 24 23 23 24 25 26 26 26 25 25 25 24 23 22 21 20 18 16 18 21 24 24 23 23 24 25 25 24 24 24 24 25 25 25 27 27 27 27 26 26 26 25 25 24 23 22 22 22 23 25 27 28 27 25 24 24
Wind_Direction
303 306 309 311 312 312 311 311 312 311 310 310 310 309 309 308 307 306 305 305 304 304 305 305 305 305 305 305 304 304 304 304 304 304 304 304 303 304 304 304 304 304 304 304 304 303 303 303 302 302 301 301 300 300 300 300 299 298 298 297 297 296 296 295 295 294 294 293 293 292 292 291 290 290 290 289 289 287 285 284 283 283 282 282 281 281
306 307 309 311 312 311 309 309 310 309 308 308 307 307 307 306 305 305 305 304 304 305 305 306 306 305 305 304 304 304 304 304 304 304 304 304 304 304 304 304 304 304 304 304 304 303 303 302 302 301 301 301 300 300 300 299 299 298 298 298 297 297 297 297 296 296 296 296 295 294 294 293 292 291 290 290 289 287 286 284 283 282 281 280 279 279
309 310 309 310 310 309 308 308 308 307 306 305 305 305 305 304 304 303 304 304 305 306 306 306 306 305 304 304 304 304 304 304 304 304 304 304 304 304 304 304 304 304 304 304 303 303 303 302 302 301 301 301 301 301 300 300 299 299 299 299 299 299 299 299 299 299 299 298 298 297 296 295 294 292 290 289 287 286 285 283 282 280 280 279 279 279
310 309 309 310 309 307 305 306 306 305 304 303 303 303 304 303 302 302 303 304 306 306 306 306 305 305 304 304 304 304 304 304 304 304 304 304 304 304 304 304 304 304 304 303 303 303 302 302 302 301 301 301 301 301 301 301 300 300 300 301 301 301 301 300 300 300 300 299 299 298 297 296 294 292 290 289 287 285 284 283 282 281 280 279 279 279
308 308 308 309 308 306 304 304 304 304 304 303 302 302 302 301 300 302 304 306 307 307 307 306 305 305 304 304 304 305 305 305 304 304 303 303 303 303 303 303 303 303 303 303 303 302 302 302 302 301 301 301 301 301 301 301 301 301 301 301 301 301 301 300 300 300 300 300 299 298 297 296 294 292 291 290 288 287 285 284 283 282 281 280 279 278
306 306 306 306 304 303 303 303 303 303 303 302 301 301 300 300 302 304 306 307 307 307 306 306 305 305 304 305 305 305 305 304 303 303 302 302 302 302 303 303 303 303 303 303 302 302 302 302 301 301 301 301 301 301 301 301 301 302 302 302 302 301 301 301 300 300 300 299 298 297 296 295 293 292 291 290 289 287 286 284 283 282 281 280 279 278
304 304 304 303 301 300 301 301 302 302 301 301 301 301 301 303 305 306 306 306 306 306 306 306 306 306 305 305 305 305 304 303 303 302 302 302 302 302 302 303 303 303 302 302 302 302 301 301 301 301 300 300 300 300 301 301 302 302 302 302 302 302 302 301 301 301 300 299 297 296 295 294 293 292 290 289 287 286 284 283 282 281 280 279 278 277
303 303 303 302 301 301 300 299 300 299 299 300 302 304 306 307 307 307 307 307 307 307 307 307 307 306 305 305 305 304 303 303 302 302 302 302 302 302 302 302 302 302 302 302 302 301 301 301 300 300 300 300 300 300 301 301 302 302 302 302 302 302 301 301 301 300 299 298 297 295 294 293 292 290 289 287 286 284 283 282 281 280 279 278 277 277
300 301 300 300 299 299 300 299 298 298 298 299 302 306 309 309 309 309 308 308 308 308 308 308 307 306 305 305 304 304 303 302 301 301 301 301 301 301 302 302 302 302 302 302 302 301 300 300 300 300 300 300 300 300 301 301 301 301 301 301 301 301 300 300 299 298 297 296 295 294 292 291 290 289 288 287 286 285 284 283 282 281 280 279 278 277
295 295 296 297 296 294 295 296 298 299 300 301 303 306 308 309 310 310 310 309 309 309 308 308 307 306 305 305 304 304 303 302 301 300 300 299 300 300 301 302 302 302 302 302 301 300 300 300 299 299 299 299 300 300 300 300 300 300 300 300 300 299 299 298 297 296 295 294 293 292 292 291 291 290 289 288 287 286 285 284 283 282 281 280 279 278
294 293 292 294 294 292 291 293 297 302 305 307 307 306 306 307 309 310 310 310 310 309 308 306 305 304 304 305 304 304 303 302 301 300 299 299 299 300 301 302 302 302 302 301 300 300 299 299 299 299 299 299 299 299 300 300 300 299 299 299 299 298 297 296 295 294 294 293 293 293 293 293 292 291 290 289 288 287 286 285 284 283 282 281 280 279
293 294 295 296 298 300 299 300 302 306 309 310 310 309 308 308 308 309 308 308 308 308 307 305 303 302 302 302 303 303 302 300 299 299 299 300 301 303 304 304 303 303 302 301 300 299 299 299 299 299 299 299 299 299 299 299 299 299 299 298 298 297 296 295 295 294 295 295 295 295 294 294 293 292 291 290 289 288 287 286 285 283 282 281 281 280
297 301 303 304 304 304 304 305 306 308 309 310 310 309 309 310 310 308 306 304 304 304 304 304 303 301 300 300 300 300 299 298 297 298 300 302 304 305 306 305 305 304 303 302 300 299 299 299 299 299 299 299 299 298 299 298 298 298 298 298 297 297 296 296 296 296 296 296 296 296 295 294 294 293 291 290 289 288 287 286 284 283 282 281 280 279
306 308 306 304 303 302 303 305 306 307 308 308 308 308 308 309 309 307 304 301 300 301 302 301 301 300 300 299 298 297 296 296 298 300 302 303 305 306 306 305 304 303 302 301 299 299 299 299 299 299 299 298 298 298 299 299 298 298 298 298 297 297 297 297 297 297 297 297 297 296 296 295 294 293 292 290 289 288 287 285 284 283 282 280 279 279
307 306 303 300 299 300 303 305 306 306 307 307 308 307 307 307 306 304 302 300 300 301 301 300 299 299 299 299 299 298 297 299 302 304 305 304 305 305 305 304 303 301 300 299 298 298 298 298 298 298 298 298 298 298 299 299 299 298 298 298 298 297 297 297 297 297 297 297 297 297 297 296 295 293 292 291 289 288 287 286 284 283 282 281 279 278
302 299 297 296 298 301 305 307 307 307 306 307 307 307 306 304 302 300 298 297 298 299 300 300 300 300 300 300 300 301 303 306 308 307 306 305 304 304 305 304 302 300 299 297 296 297 298 298 298 297 297 298 298 298 299 299 298 298 298 298 298 297 297 297 297 297 297 298 298 298 297 296 295 294 293 292 291 289 288 287 285 284 283 281 280 279
296 295 295 298 302 304 306 306 305 304 304 304 304 303 301 299 297 296 295 295 295 295 295 296 297 300 301 302 303 305 309 312 311 308 306 303 302 303 304 302 299 298 297 296 296 296 297 297 297 297 297 297 298 298 299 299 298 298 298 298 298 297 297 297 297 297 298 298 298 297 297 296 296 295 294 293 292 291 289 288 287 285 284 283 281 280
297 298 301 303 303 303 304 303 302 302 302 301 301 299 297 294 293 292 292 291 290 290 290 290 291 293 297 301 303 306 311 313 311 308 304 301 300 301 302 300 297 295 295 295 295 295 296 296 296 296 297 297 298 298 298 298 298 298 298 298 297 297 297 297 297 297 297 297 297 296 296 296 295 294 294 293 292 291 290 289 288 287 286 285 283 282
302 303 303 302 301 300 300 300 299 299 299 298 297 296 294 291 290 290 288 287 286 285 287 288 289 291 295 299 302 306 310 311 309 305 302 299 299 300 301 300 297 294 294 294 294 295 296 296 296 296 296 296 297 297 297 298 298 298 297 298 298 297 297 297 297 297 297 297 296 296 295 295 294 294 293 293 292 292 291 290 290 289 287 286 285 284
302 300 299 298 298 298 296 295 295 295 295 294 293 292 290 290 290 289 287 286 285 285 286 288 292 296 300 301 302 305 308 309 307 303 299 297 298 299 300 299 297 295 294 294 295 296 297 296 296 296 296 296 296 297 297 297 297 297 297 298 298 297 297 297 297 297 296 296 296 296 295 294 294 293 293 293 293 293 293 292 291 290 288 287 286 285
297 295 294 294 294 293 292 292 291 291 291 291 289 288 287 287 288 287 288 288 290 292 295 297 299 300 302 302 302 303 305 306 303 300 298 297 297 298 299 299 298 296 295 295 296 297 297 296 296 296 296 296 296 296 297 297 297 297 297 297 297 297 297 297 297 297 296 296 296 295 295 295 295 294 294 294 294 294 293 293 291 290 289 287 286 285
291 291 291 291 289 287 287 288 289 290 289 288 285 283 282 283 285 289 293 298 302 304 304 302 301 300 300 299 299 300 301 301 298 296 297 296 295 297 300 301 300 297 296 296 297 298 297 296 296 295 296 296 296 296 296 296 296 296 297 297 297 297 297 297 296 296 296 296 296 296 296 296 296 296 295 295 295 294 293 292 292 290 289 288 287 286
288 288 290 289 287 285 285 286 287 288 288 285 282 280 282 287 294 302 307 309 308 305 303 301 300 299 298 297 297 298 299 298 296 295 294 293 294 297 301 302 301 298 296 297 298 299 299 297 296 296 296 295 295 295 295 295 295 296 296 296 296 296 296 296 296 296 296 296 296 296 297 297 296 296 296 295 294 294 293 292 292 291 290 289 288 287
287 287 288 288 287 287 287 286 288 289 290 291 292 294 300 304 307 307 307 306 305 304 303 302 301 300 299 298 298 298 298 298 298 296 293 290 292 296 300 301 300 298 296 297 299 300 300 298 297 296 296 295 295 295 294 294 295 295 295 295 296 296 296 296 296 296 296 297 297 297 297 296 296 296 295 295 294 293 293 292 292 291 290 289 288 287
289 288 288 288 288 289 289 290 291 294 299 304 309 312 313 311 308 306 304 304 303 303 303 303 301 300 300 301 300 299 299 300 299 296 292 290 291 294 297 299 299 297 297 298 300 301 300 299 298 297 296 295 294 294 294 293 294 294 294 295 295 295 295 295 296 296 297 297 296 296 296 296 295 295 294 294 293 293 293 292 292 291 291 290 290 289
289 289 289 289 290 291 292 295 297 300 304 308 310 310 309 308 307 305 303 303 303 304 304 301 299 298 299 300 299 298 299 300 299 296 292 291 292 294 296 298 297 296 296 299 301 301 301 299 298 298 297 295 294 293 293 293 293 293 293 294 295 295 295 296 296 296 296 296 295 295 295 295 295 294 294 294 293 293 293 293 293 292 292 292 291 290
290 290 291 291 292 293 296 299 302 303 304 304 304 305 306 306 305 303 301 301 303 305 303 299 298 298 299 299 297 297 299 299 298 295 292 290 289 291 294 297 298 298 298 300 301 301 300 298 298 297 296 295 294 293 293 293 293 293 294 294 295 295 295 295 295 295 295 295 295 294 294 294 294 294 294 294 294 293 293 293 293 293 293 292 291 290
292 291 292 293 294 297 300 302 304 304 304 303 303 304 304 304 303 300 298 301 303 302 297 294 294 296 297 297 297 297 298 297 296 295 294 291 287 288 293 298 301 301 301 301 301 301 299 296 296 295 295 294 295 295 295 295 295 294 295 295 294 294 295 295 295 295 294 294 294 293 293 293 293 293 293 294 293 293 293 293 293 293 293 292 291 289
296 295 295 297 301 303 305 306 306 305 305 305 304 304 304 303 299 297 296 298 299 296 292 290 291 292 294 296 297 298 297 295 295 297 300 297 291 290 296 300 302 302 304 303 303 302 300 297 296 296 296 296 297 297 297 297 297 296 295 294 294 294 294 294 294 294 294 293 293 293 293 292 292 292 292 292 292 292 292 293 293 293 293 291 290 288
305 306 307 307 308 309 309 309 308 307 305 304 304 303 302 299 295 292 292 292 292 290 289 290 290 291 293 296 298 297 296 295 298 303 308 304 297 295 299 301 301 301 304 305 304 303 301 301 299 298 298 298 299 299 298 298 298 297 296 295 294 294 294 294 294 293 293 293 293 292 292 292 292 291 291 291 291 291 292 292 293 293 292 290 289 287
314 313 312 312 311 312 311 311 309 307 305 304 304 302 300 297 293 290 289 288 287 287 287 289 289 290 292 295 296 295 294 295 299 305 309 304 297 295 299 299 299 300 301 302 301 300 303 304 303 302 301 300 299 299 298 298 298 297 296 295 295 294 294 294 294 294 294 293 292 292 291 291 291 290 290 290 290 290 291 291 292 292 290 289 287 286
315 314 313 312 312 312 311 310 308 307 306 306 305 303 301 298 295 292 291 289 288 287 287 288 288 289 289 287 285 283 287 292 296 301 305 300 295 294 297 297 297 298 299 297 293 290 297 301 303 303 302 301 299 298 298 298 297 296 296 295 295 294 295 295 295 295 294 294 293 292 291 290 290 290 289 289 289 289 290 290 290 290 289 287 285 283
314 313 312 311 311 310 309 308 307 307 306 306 305 305 303 301 298 295 293 292 290 289 288 288 288 288 287 285 283 282 284 287 292 297 300 298 295 294 296 296 296 297 298 296 293 289 288 289 296 300 301 300 299 298 297 297 297 296 295 294 294 294 295 295 295 295 294 294 293 292 291 290 289 289 289 288 288 288 288 289 289 288 287 286 285 283
313 312 310 310 309 308 307 307 306 306 305 305 306 305 304 303 301 298 296 294 292 289 287 286 285 286 287 286 285 284 284 286 290 295 298 296 294 293 295 295 295 296 297 297 295 293 290 290 293 297 300 300 299 298 297 296 296 295 294 293 293 293 294 295 295 294 293 293 292 291 290 290 289 289 288 288 287 287 287 287 288 288 287 286 285 285
312 311 310 309 309 308 308 308 307 307 306 306 306 306 305 304 302 300 298 296 292 289 286 284 282 281 282 283 284 284 285 288 291 295 296 294 291 291 293 293 293 294 295 295 295 294 293 293 294 296 298 299 299 298 297 296 296 295 295 293 293 293 293 294 293 293 292 292 291 290 289 289 288 288 288 288 287 287 287 289 289 289 288 287 286 285
310 309 309 309 309 309 308 308 308 308 308 307 307 307 306 305 303 301 299 297 294 291 287 285 281 279 278 277 278 279 283 287 291 293 293 290 289 288 289 290 292 292 292 292 293 293 293 294 295 295 296 297 297 298 298 298 298 297 295 294 294 293 293 293 292 292 291 290 289 288 288 288 287 287 287 288 288 288 289 290 290 289 288 287 285 282
309 308 308 308 308 308 307 307 308 308 308 308 308 308 307 305 303 301 299 297 295 293 291 288 284 281 278 276 276 277 279 284 287 289 289 288 286 285 284 286 288 289 288 288 290 291 292 293 294 295 295 293 294 297 299 301 300 298 295 295 294 294 293 292 291 290 289 288 287 287 287 287 287 287 287 288 288 288 289 289 289 288 287 286 284 282
308 307 307 308 308 307 307 307 307 308 308 308 308 307 306 305 303 301 300 298 297 295 293 292 289 286 285 282 280 281 282 284 285 287 288 287 285 283 282 283 285 285 284 283 284 286 288 289 291 292 293 292 292 294 296 298 299 297 296 295 295 294 292 291 291 290 289 288 288 288 287 287 287 287 287 287 288 288 288 288 288 288 287 287 286 283
306 306 307 307 308 307 307 306 306 306 306 306 306 305 305 304 303 302 301 300 298 297 295 293 292 290 290 289 288 287 286 286 286 288 288 288 286 283 281 281 282 283 282 281 280 280 282 283 284 286 288 291 293 294 295 295 295 295 295 296 296 294 292 292 292 291 290 289 288 288 287 286 286 286 286 286 287 287 286 288 289 288 287 286 286 286
308 307 307 307 307 306 305 305 304 305 305 305 305 305 304 304 304 304 303 303 301 299 298 296 295 294 293 293 292 291 290 289 290 290 290 289 288 285 282 280 280 281 282 281 279 279 279 280 281 283 284 286 289 292 294 294 293 293 295 296 295 294 293 294 293 292 290 288 287 285 286 286 286 286 285 285 285 284 283 285 287 287 286 284 284 285
308 308 307 307 307 306 305 304 304 304 304 304 304 304 305 305 306 306 305 305 304 303 302 301 300 298 297 296 295 294 293 292 292 292 292 291 290 288 285 282 280 280 280 280 279 278 277 277 279 281 282 283 285 287 289 290 291 292 293 292 291 291 292 293 292 290 289 287 286 285 285 286 286 286 285 284 283 282 282 282 282 283 283 281 280 279
308 307 306 306 306 305 305 305 305 305 306 305 304 305 305 305 305 306 305 304 304 304 304 304 303 302 300 299 298 297 295 295 294 294 294 294 293 292 289 286 283 281 279 279 279 278 276 275 276 278 280 282 283 285 287 288 289 290 289 288 289 291 293 292 291 290 289 288 287 286 285 285 284 284 283 282 282 283 282 280 280 280 279 279 277 275
306 305 304 305 305 305 306 306 307 307 308 307 306 305 305 304 304 304 304 303 302 303 304 303 303 301 300 299 299 299 299 299 298 298 297 296 295 294 292 290 287 283 280 278 278 279 278 277 276 276 278 281 282 282 285 287 288 289 288 287 288 290 291 291 292 292 291 289 288 287 285 283 283 283 282 282 282 282 281 280 281 280 276 275 275 274
303 303 304 304 305 307 308 308 308 308 308 307 305 305 304 304 304 304 303 302 301 302 302 303 302 300 298 297 298 300 302 302 302 300 299 298 297 296 294 291 288 285 283 278 277 279 281 281 280 280 280 280 280 281 283 285 287 287 287 287 286 285 283 286 289 291 291 289 287 285 284 283 283 284 283 283 282 281 281 279 278 277 276 275 274 274
303 304 305 306 307 308 308 308 308 308 308 306 304 304 305 305 306 305 302 302 302 302 302 302 301 300 299 299 300 302 304 305 304 303 302 302 301 300 297 294 291 288 285 280 277 275 277 279 281 283 283 282 280 279 280 282 283 285 285 286 286 284 282 283 285 287 287 287 286 286 285 284 283 283 283 283 283 282 281 280 279 278 278 277 276 275
305 305 306 307 308 308 308 308 308 308 307 305 305 305 305 306 306 305 303 301 301 301 301 301 299 297 295 298 301 303 304 305 306 306 305 305 304 303 301 298 294 291 287 284 281 278 276 275 278 282 284 284 282 281 280 280 281 282 284 285 285 285 284 284 285 285 284 284 285 285 285 285 284 283 282 283 284 285 284 282 280 279 278 277 276 274
306 306 307 308 308 308 308 308 308 307 306 306 305 305 306 306 306 305 304 302 301 300 301 300 298 294 293 295 297 300 301 303 304 305 306 306 306 306 305 302 299 295 291 288 285 283 280 277 277 278 279 281 282 282 282 281 280 280 282 284 285 285 285 285 285 285 285 284 284 285 286 287 286 285 284 285 286 286 285 284 282 280 278 277 275 274
308 308 308 308 308 308 308 308 308 307 306 306 306 306 306 306 305 305 304 303 302 301 301 300 298 296 295 295 296 297 298 299 300 301 303 304 305 306 305 304 302 300 297 293 289 287 284 282 279 276 274 274 275 277 279 280 280 280 280 282 283 283 283 283 285 287 287 286 285 286 287 287 286 285 286 287 287 287 286 286 284 282 279 276 274 273
308 307 307 307 307 306 306 307 307 306 305 305 305 306 307 306 306 304 303 303 302 300 299 298 297 296 296 296 297 297 298 298 298 298 300 302 303 304 304 304 304 304 302 299 296 293 290 288 285 281 275 270 268 270 274 277 279 280 281 281 282 282 283 285 288 289 290 289 288 287 286 285 283 283 283 284 284 285 287 286 285 283 280 277 275 273
307 306 306 306 306 305 304 305 305 305 304 304 304 305 306 306 306 305 303 302 301 299 297 296 295 295 295 296 296 297 298 297 297 298 299 301 302 302 302 303 303 303 303 302 301 299 297 295 293 290 285 277 271 269 271 275 279 281 283 283 283 284 286 287 289 291 291 290 290 288 286 285 283 281 279 279 280 283 285 285 285 284 283 280 277 273
308 307 306 306 305 304 304 304 303 303 302 302 302 303 304 304 305 305 305 304 302 299 297 296 295 294 294 294 295 296 297 297 296 296 298 300 301 301 300 301 300 300 300 301 302 301 301 298 297 296 295 292 286 279 276 278 281 285 286 287 288 289 289 290 290 291 291 290 289 288 286 284 282 280 277 275 277 280 283 284 285 285 285 283 280 276